Time,TemperatureF,DewpointF,PressureIn,WindDirection,WindDirectionDegrees,WindSpeedMPH,WindSpeedGustMPH,Humidity,HourlyPrecipIn,Conditions,Clouds,dailyrainin,SoftwareType,DateUTC
2013-04-14 00:02:00,30.0,19.0,29.59,SSW,212,9.0,19.0,63,0.00,,,0.18,,2013-04-14 06:02:00,
2013-04-14 00:12:00,30.0,19.0,29.59,SSW,212,9.0,19.0,63,0.00,,,0.18,,2013-04-14 06:12:00,
2013-04-14 00:22:00,29.0,20.0,29.58,SW,227,9.0,16.0,68,0.00,,,0.18,,2013-04-14 06:22:00,
2013-04-14 00:32:00,29.0,18.0,29.59,WSW,257,9.0,24.0,63,0.00,,,0.18,,2013-04-14 06:32:00,
2013-04-14 00:42:00,29.0,18.0,29.59,WSW,257,9.0,24.0,63,0.00,,,0.18,,2013-04-14 06:42:00,
2013-04-14 00:52:00,29.0,18.0,29.59,WSW,255,11.0,20.0,64,0.00,,,0.18,,2013-04-14 06:52:00,
2013-04-14 01:02:00,28.0,17.0,29.60,SSW,202,10.0,24.0,63,0.00,,,0.18,,2013-04-14 07:02:00,
2013-04-14 01:12:00,28.0,17.0,29.60,SSW,202,10.0,24.0,63,0.00,,,0.18,,2013-04-14 07:12:00,
2013-04-14 01:22:00,27.0,17.0,29.59,SW,235,7.0,17.0,66,0.00,,,0.18,,2013-04-14 07:22:00,
2013-04-14 01:32:00,27.0,17.0,29.60,SSW,192,10.0,26.0,65,0.00,,,0.18,,2013-04-14 07:32:00,
2013-04-14 01:42:00,27.0,17.0,29.60,SSW,192,10.0,26.0,65,0.00,,,0.18,,2013-04-14 07:42:00,
2013-04-14 01:52:00,27.0,17.0,29.58,SW,230,9.0,18.0,65,0.00,,,0.18,,2013-04-14 07:52:00,
2013-04-14 02:02:00,26.0,17.0,29.58,SW,233,10.0,21.0,67,0.00,,,0.18,,2013-04-14 08:02:00,
2013-04-14 02:12:00,26.0,17.0,29.58,SW,233,10.0,21.0,67,0.00,,,0.18,,2013-04-14 08:12:00,
2013-04-14 02:22:00,26.0,17.0,29.58,SSW,213,11.0,19.0,68,0.00,,,0.18,,2013-04-14 08:22:00,
2013-04-14 02:32:00,25.0,17.0,29.59,SW,233,8.0,18.0,70,0.00,,,0.18,,2013-04-14 08:32:00,
2013-04-14 02:42:00,25.0,17.0,29.59,SW,233,8.0,18.0,70,0.00,,,0.18,,2013-04-14 08:42:00,
2013-04-14 02:52:00,25.0,17.0,29.58,SSW,200,9.0,18.0,70,0.00,,,0.18,,2013-04-14 08:52:00,
2013-04-14 03:02:00,25.0,17.0,29.59,SW,232,7.0,17.0,72,0.00,,,0.18,,2013-04-14 09:02:00,
2013-04-14 03:12:00,25.0,17.0,29.59,SW,232,7.0,17.0,72,0.00,,,0.18,,2013-04-14 09:12:00,
2013-04-14 03:22:00,24.0,16.0,29.59,SSW,200,6.0,21.0,72,0.00,,,0.18,,2013-04-14 09:22:00,
2013-04-14 03:32:00,24.0,15.0,29.59,SSW,211,0.0,15.0,68,0.00,,,0.18,,2013-04-14 09:32:00,
2013-04-14 03:42:00,24.0,15.0,29.59,SSW,211,0.0,15.0,68,0.00,,,0.18,,2013-04-14 09:42:00,
2013-04-14 03:53:00,24.0,15.0,29.58,SSW,194,0.0,14.0,68,0.00,,,0.18,,2013-04-14 09:53:00,
2013-04-14 04:03:00,23.0,13.0,29.59,SW,233,10.0,19.0,66,0.00,,,0.18,,2013-04-14 10:03:00,
2013-04-14 04:12:00,23.0,13.0,29.59,SW,233,10.0,19.0,66,0.00,,,0.18,,2013-04-14 10:12:00,
2013-04-14 04:23:00,22.0,13.0,29.59,SSW,210,5.0,13.0,68,0.00,,,0.18,,2013-04-14 10:23:00,
2013-04-14 04:32:00,21.0,12.0,29.58,SSW,203,7.0,13.0,67,0.00,,,0.18,,2013-04-14 10:32:00,
2013-04-14 04:42:00,21.0,12.0,29.58,SSW,203,7.0,13.0,67,0.00,,,0.18,,2013-04-14 10:42:00,
2013-04-14 04:52:00,21.0,12.0,29.59,West,265,5.0,15.0,67,0.00,,,0.18,,2013-04-14 10:52:00,
2013-04-14 05:02:00,21.0,11.0,29.59,South,190,6.0,17.0,66,0.00,,,0.18,,2013-04-14 11:02:00,
2013-04-14 05:12:00,21.0,11.0,29.59,South,190,6.0,17.0,66,0.00,,,0.18,,2013-04-14 11:12:00,
2013-04-14 05:22:00,20.0,11.0,29.59,SSW,200,5.0,14.0,67,0.00,,,0.18,,2013-04-14 11:22:00,
2013-04-14 05:32:00,20.0,11.0,29.60,WSW,250,9.0,16.0,67,0.00,,,0.18,,2013-04-14 11:32:00,
2013-04-14 05:42:00,20.0,11.0,29.60,WSW,250,9.0,16.0,67,0.00,,,0.18,,2013-04-14 11:42:00,
2013-04-14 05:53:00,20.0,9.0,29.60,SW,221,13.0,23.0,63,0.00,,,0.18,,2013-04-14 11:53:00,
2013-04-14 06:02:00,20.0,9.0,29.60,SW,225,10.0,25.0,63,0.00,,,0.18,,2013-04-14 12:02:00,
2013-04-14 06:12:00,20.0,9.0,29.60,SW,225,10.0,25.0,63,0.00,,,0.18,,2013-04-14 12:12:00,
2013-04-14 06:22:00,20.0,9.0,29.62,WSW,248,12.0,25.0,61,0.00,,,0.18,,2013-04-14 12:22:00,
2013-04-14 06:32:00,19.0,9.0,29.61,SSW,202,11.0,22.0,64,0.00,,,0.18,,2013-04-14 12:32:00,
2013-04-14 06:42:00,19.0,9.0,29.61,SSW,202,11.0,22.0,64,0.00,,,0.18,,2013-04-14 12:42:00,
2013-04-14 06:52:00,19.0,9.0,29.61,SW,233,15.0,21.0,65,0.00,,,0.18,,2013-04-14 12:52:00,
2013-04-14 07:02:00,19.0,10.0,29.62,SSW,196,15.0,19.0,66,0.00,,,0.18,,2013-04-14 13:02:00,
2013-04-14 07:12:00,19.0,10.0,29.62,SSW,196,15.0,19.0,66,0.00,,,0.18,,2013-04-14 13:12:00,
2013-04-14 07:22:00,20.0,10.0,29.62,SW,232,15.0,22.0,64,0.00,,,0.18,,2013-04-14 13:22:00,
2013-04-14 07:32:00,20.0,10.0,29.62,South,190,9.0,22.0,64,0.00,,,0.18,,2013-04-14 13:32:00,
2013-04-14 07:42:00,20.0,10.0,29.62,South,190,9.0,22.0,64,0.00,,,0.18,,2013-04-14 13:42:00,
2013-04-14 07:52:00,20.0,9.0,29.63,WSW,253,2.0,13.0,62,0.00,,,0.18,,2013-04-14 13:52:00,
2013-04-14 08:02:00,19.0,8.0,29.64,WSW,255,0.0,0.0,62,0.00,,,0.18,,2013-04-14 14:02:00,
2013-04-14 08:12:00,19.0,9.0,29.65,SW,227,0.0,11.0,64,0.00,,,0.18,,2013-04-14 14:12:00,
2013-04-14 08:22:00,19.0,9.0,29.65,SW,227,0.0,11.0,64,0.00,,,0.18,,2013-04-14 14:22:00,
2013-04-14 08:32:00,19.0,8.0,29.65,SW,221,3.0,20.0,61,0.00,,,0.18,,2013-04-14 14:32:00,
2013-04-14 08:42:00,19.0,8.0,29.65,SW,221,3.0,20.0,61,0.00,,,0.18,,2013-04-14 14:42:00,
2013-04-14 08:53:00,19.0,7.0,29.66,WSW,248,11.0,23.0,60,0.00,,,0.18,,2013-04-14 14:53:00,
2013-04-14 09:02:00,19.0,8.0,29.66,SW,233,9.0,24.0,61,0.00,,,0.18,,2013-04-14 15:02:00,
2013-04-14 09:12:00,19.0,8.0,29.66,SW,233,9.0,24.0,61,0.00,,,0.18,,2013-04-14 15:12:00,
2013-04-14 09:22:00,20.0,8.0,29.65,SSW,199,5.0,24.0,59,0.00,,,0.18,,2013-04-14 15:22:00,
2013-04-14 09:33:00,20.0,8.0,29.66,NNW,328,11.0,23.0,59,0.00,,,0.18,,2013-04-14 15:33:00,
2013-04-14 09:43:00,20.0,8.0,29.66,NNW,328,11.0,23.0,59,0.00,,,0.18,,2013-04-14 15:43:00,
2013-04-14 09:53:00,20.0,7.0,29.66,South,183,12.0,23.0,56,0.00,,,0.18,,2013-04-14 15:53:00,
2013-04-14 10:04:00,21.0,7.0,29.67,NW,313,13.0,20.0,55,0.00,,,0.18,,2013-04-14 16:04:00,
2013-04-14 10:13:00,21.0,7.0,29.67,NW,313,13.0,20.0,55,0.00,,,0.18,,2013-04-14 16:13:00,
2013-04-14 10:22:00,21.0,7.0,29.67,SW,232,7.0,25.0,55,0.00,,,0.18,,2013-04-14 16:22:00,
2013-04-14 10:32:00,21.0,8.0,29.68,WSW,256,9.0,21.0,56,0.00,,,0.18,,2013-04-14 16:32:00,
2013-04-14 10:43:00,21.0,8.0,29.68,WSW,256,9.0,21.0,56,0.00,,,0.18,,2013-04-14 16:43:00,
2013-04-14 10:53:00,22.0,8.0,29.68,SSW,205,12.0,31.0,54,0.00,,,0.18,,2013-04-14 16:53:00,
2013-04-14 11:02:00,23.0,8.0,29.67,WSW,255,12.0,30.0,51,0.00,,,0.18,,2013-04-14 17:02:00,
2013-04-14 11:12:00,23.0,8.0,29.67,WSW,255,12.0,30.0,51,0.00,,,0.18,,2013-04-14 17:12:00,
2013-04-14 11:22:00,23.0,9.0,29.67,NNE,17,6.0,28.0,55,0.00,,,0.18,,2013-04-14 17:22:00,
2013-04-14 11:32:00,24.0,10.0,29.66,WSW,250,12.0,22.0,54,0.00,,,0.18,,2013-04-14 17:32:00,
2013-04-14 11:42:00,24.0,10.0,29.66,WSW,250,12.0,22.0,54,0.00,,,0.18,,2013-04-14 17:42:00,
2013-04-14 11:53:00,24.0,9.0,29.67,SSW,203,6.0,18.0,53,0.00,,,0.18,,2013-04-14 17:53:00,
2013-04-14 12:02:00,24.0,9.0,29.67,North,360,3.0,23.0,53,0.00,,,0.18,,2013-04-14 18:02:00,
2013-04-14 12:12:00,24.0,9.0,29.67,North,360,3.0,23.0,53,0.00,,,0.18,,2013-04-14 18:12:00,
2013-04-14 12:22:00,24.0,7.0,29.69,NW,314,12.0,24.0,47,0.00,,,0.18,,2013-04-14 18:22:00,
2013-04-14 12:32:00,25.0,8.0,29.67,ENE,74,7.0,25.0,48,0.00,,,0.18,,2013-04-14 18:32:00,
2013-04-14 12:42:00,25.0,8.0,29.67,ENE,74,7.0,25.0,48,0.00,,,0.18,,2013-04-14 18:42:00,
2013-04-14 12:53:00,25.0,8.0,29.67,WSW,255,15.0,23.0,48,0.00,,,0.18,,2013-04-14 18:53:00,
2013-04-14 13:03:00,26.0,9.0,29.67,WSW,252,8.0,17.0,49,0.00,,,0.18,,2013-04-14 19:03:00,
2013-04-14 13:12:00,26.0,9.0,29.67,WSW,252,8.0,17.0,49,0.00,,,0.18,,2013-04-14 19:12:00,
2013-04-14 13:22:00,26.0,8.0,29.69,NNW,331,6.0,25.0,46,0.00,,,0.18,,2013-04-14 19:22:00,
2013-04-14 13:32:00,26.0,8.0,29.67,SSW,207,11.0,23.0,46,0.00,,,0.18,,2013-04-14 19:32:00,
2013-04-14 13:42:00,26.0,8.0,29.67,SSW,207,11.0,23.0,46,0.00,,,0.18,,2013-04-14 19:42:00,
2013-04-14 13:52:00,27.0,7.0,29.66,South,182,7.0,33.0,42,0.00,,,0.18,,2013-04-14 19:52:00,
2013-04-14 14:02:00,27.0,8.0,29.66,SW,234,15.0,33.0,44,0.00,,,0.18,,2013-04-14 20:02:00,
2013-04-14 14:12:00,27.0,8.0,29.66,SW,234,15.0,33.0,44,0.00,,,0.18,,2013-04-14 20:12:00,
2013-04-14 14:22:00,27.0,8.0,29.68,WNW,290,10.0,38.0,44,0.00,,,0.18,,2013-04-14 20:22:00,
2013-04-14 14:33:00,28.0,11.0,29.68,West,261,7.0,28.0,49,0.00,,,0.18,,2013-04-14 20:33:00,
2013-04-14 14:42:00,28.0,11.0,29.68,West,261,7.0,28.0,49,0.00,,,0.18,,2013-04-14 20:42:00,
2013-04-14 14:52:00,25.0,9.0,29.70,WSW,254,16.0,33.0,50,0.00,,,0.18,,2013-04-14 20:52:00,
2013-04-14 15:02:00,26.0,9.0,29.70,South,180,19.0,26.0,49,0.00,,,0.18,,2013-04-14 21:02:00,
2013-04-14 15:12:00,26.0,9.0,29.70,South,180,19.0,26.0,49,0.00,,,0.18,,2013-04-14 21:12:00,
2013-04-14 15:23:00,28.0,9.0,29.69,South,180,10.0,20.0,45,0.00,,,0.18,,2013-04-14 21:23:00,
2013-04-14 15:33:00,27.0,8.0,29.68,West,269,10.0,33.0,43,0.00,,,0.18,,2013-04-14 21:33:00,
2013-04-14 15:43:00,27.0,8.0,29.68,West,269,10.0,33.0,43,0.00,,,0.18,,2013-04-14 21:43:00,
2013-04-14 15:53:00,27.0,6.0,29.71,SSW,196,19.0,33.0,41,0.00,,,0.18,,2013-04-14 21:53:00,
2013-04-14 16:02:00,27.0,6.0,29.71,WSW,248,18.0,31.0,41,0.00,,,0.18,,2013-04-14 22:02:00,
2013-04-14 16:12:00,27.0,6.0,29.71,WSW,248,18.0,31.0,41,0.00,,,0.18,,2013-04-14 22:12:00,
2013-04-14 16:23:00,28.0,6.0,29.72,WNW,292,8.0,23.0,39,0.00,,,0.18,,2013-04-14 22:23:00,
2013-04-14 16:32:00,28.0,6.0,29.70,West,281,14.0,26.0,38,0.00,,,0.18,,2013-04-14 22:32:00,
2013-04-14 16:43:00,28.0,6.0,29.70,West,281,14.0,26.0,38,0.00,,,0.18,,2013-04-14 22:43:00,
2013-04-14 16:53:00,29.0,6.0,29.70,South,191,13.0,36.0,37,0.00,,,0.18,,2013-04-14 22:53:00,
2013-04-14 17:02:00,30.0,8.0,29.71,West,265,14.0,33.0,39,0.00,,,0.18,,2013-04-14 23:02:00,
2013-04-14 17:12:00,29.0,7.0,29.71,WNW,284,17.0,38.0,39,0.00,,,0.18,,2013-04-14 23:12:00,
2013-04-14 17:22:00,29.0,7.0,29.71,WNW,284,17.0,38.0,39,0.00,,,0.18,,2013-04-14 23:22:00,
2013-04-14 17:32:00,30.0,8.0,29.70,WSW,257,10.0,26.0,38,0.00,,,0.18,,2013-04-14 23:32:00,
2013-04-14 17:42:00,30.0,8.0,29.70,WSW,257,10.0,26.0,38,0.00,,,0.18,,2013-04-14 23:42:00,
2013-04-14 17:53:00,30.0,8.0,29.71,South,172,12.0,27.0,38,0.00,,,0.18,,2013-04-14 23:53:00,
2013-04-14 18:02:00,30.0,6.0,29.73,SW,218,16.0,27.0,35,0.00,,,0.18,,2013-04-15 00:02:00,
2013-04-14 18:12:00,30.0,6.0,29.73,SW,218,16.0,27.0,35,0.00,,,0.18,,2013-04-15 00:12:00,
2013-04-14 18:22:00,30.0,6.0,29.71,WSW,253,14.0,27.0,35,0.00,,,0.18,,2013-04-15 00:22:00,
2013-04-14 18:32:00,30.0,5.0,29.71,SSW,211,12.0,25.0,34,0.00,,,0.16,,2013-04-15 00:32:00,
2013-04-14 18:42:00,29.0,5.0,29.71,WNW,290,8.0,17.0,35,0.00,,,0.16,,2013-04-15 00:42:00,
2013-04-14 18:52:00,29.0,5.0,29.71,WNW,290,8.0,17.0,35,0.00,,,0.16,,2013-04-15 00:52:00,
2013-04-14 19:02:00,29.0,5.0,29.71,SSE,163,9.0,17.0,35,0.00,,,0.16,,2013-04-15 01:02:00,
2013-04-14 19:12:00,29.0,5.0,29.71,SSE,163,9.0,17.0,35,0.00,,,0.16,,2013-04-15 01:12:00,
2013-04-14 19:23:00,29.0,5.0,29.73,SSW,209,14.0,18.0,36,0.00,,,0.16,,2013-04-15 01:23:00,
2013-04-14 19:32:00,28.0,5.0,29.73,SW,234,9.0,18.0,36,0.00,,,0.13,,2013-04-15 01:32:00,
2013-04-14 19:42:00,28.0,5.0,29.73,SW,234,9.0,18.0,36,0.00,,,0.13,,2013-04-15 01:42:00,
2013-04-14 19:52:00,28.0,6.0,29.74,SSW,200,4.0,19.0,38,0.00,,,0.13,,2013-04-15 01:52:00,
2013-04-14 20:02:00,28.0,6.0,29.75,WNW,294,7.0,14.0,38,0.00,,,0.13,,2013-04-15 02:02:00,
2013-04-14 20:12:00,28.0,6.0,29.75,WNW,294,7.0,14.0,38,0.00,,,0.13,,2013-04-15 02:12:00,
2013-04-14 20:22:00,28.0,5.0,29.75,SW,225,8.0,19.0,37,0.00,,,0.13,,2013-04-15 02:22:00,
2013-04-14 20:32:00,27.0,6.0,29.75,South,184,4.0,11.0,41,0.00,,,0.10,,2013-04-15 02:32:00,
2013-04-14 20:42:00,27.0,6.0,29.75,South,184,4.0,11.0,41,0.00,,,0.10,,2013-04-15 02:42:00,
2013-04-14 20:52:00,27.0,6.0,29.76,WSW,237,6.0,16.0,40,0.00,,,0.10,,2013-04-15 02:52:00,
2013-04-14 21:02:00,27.0,5.0,29.76,NW,315,2.0,17.0,39,0.00,,,0.10,,2013-04-15 03:02:00,
2013-04-14 21:12:00,27.0,5.0,29.76,NW,315,2.0,17.0,39,0.00,,,0.10,,2013-04-15 03:12:00,
2013-04-14 21:22:00,27.0,6.0,29.76,East,83,1.0,9.0,40,0.00,,,0.10,,2013-04-15 03:22:00,
2013-04-14 21:32:00,27.0,6.0,29.77,WSW,246,2.0,4.0,40,0.00,,,0.04,,2013-04-15 03:32:00,
2013-04-14 21:43:00,27.0,6.0,29.77,WSW,246,2.0,4.0,40,0.00,,,0.04,,2013-04-15 03:43:00,
2013-04-14 21:54:00,27.0,5.0,29.77,WSW,246,9.0,14.0,39,0.00,,,0.04,,2013-04-15 03:54:00,
2013-04-14 22:03:00,27.0,6.0,29.78,SSW,196,11.0,22.0,40,0.00,,,0.04,,2013-04-15 04:03:00,
2013-04-14 22:13:00,27.0,6.0,29.78,SSW,196,11.0,22.0,40,0.00,,,0.04,,2013-04-15 04:13:00,
2013-04-14 22:23:00,27.0,6.0,29.78,SSW,196,11.0,22.0,40,0.00,,,0.04,,2013-04-15 04:23:00,
2013-04-14 22:33:00,27.0,6.0,29.78,SSW,207,7.0,12.0,41,0.00,,,0.01,,2013-04-15 04:33:00,
2013-04-14 22:42:00,27.0,6.0,29.78,SSW,207,7.0,12.0,41,0.00,,,0.01,,2013-04-15 04:42:00,
2013-04-14 22:53:00,27.0,6.0,29.78,SSW,194,7.0,11.0,41,0.00,,,0.01,,2013-04-15 04:53:00,
2013-04-14 23:02:00,27.0,8.0,29.77,WNW,302,1.0,16.0,43,0.00,,,0.01,,2013-04-15 05:02:00,
2013-04-14 23:12:00,27.0,8.0,29.77,WNW,302,1.0,16.0,43,0.00,,,0.01,,2013-04-15 05:12:00,
2013-04-14 23:23:00,26.0,8.0,29.76,WSW,238,6.0,17.0,45,0.00,,,0.01,,2013-04-15 05:23:00,
2013-04-14 23:32:00,26.0,9.0,29.77,SW,226,6.0,12.0,47,0.00,,,0.00,,2013-04-15 05:32:00,
2013-04-14 23:42:00,26.0,9.0,29.77,SW,226,6.0,12.0,47,0.00,,,0.00,,2013-04-15 05:42:00,
2013-04-14 23:52:00,26.0,10.0,29.76,NW,310,5.0,15.0,50,0.00,,,0.00,,2013-04-15 05:52:00,